Time,TemperatureF,DewpointF,PressureIn,WindDirection,WindDirectionDegrees,WindSpeedMPH,WindSpeedGustMPH,Humidity,HourlyPrecipIn,Conditions,Clouds,dailyrainin,SoftwareType,DateUTC
2013-09-16 00:11:00,60.0,59.0,29.81,SE,138,4.0,10.0,96,0.00,,,0.12,,2013-09-16 07:11:00,
2013-09-16 00:21:00,60.0,59.0,29.81,SSW,194,5.0,13.0,95,0.00,,,0.12,,2013-09-16 07:21:00,
2013-09-16 00:43:00,60.0,59.0,29.81,South,180,9.0,14.0,95,0.00,,,0.12,,2013-09-16 07:43:00,
2013-09-16 00:52:00,60.0,59.0,29.81,SW,221,7.0,16.0,95,0.00,,,0.12,,2013-09-16 07:52:00,
2013-09-16 01:11:00,60.0,59.0,29.81,SE,138,6.0,13.0,95,0.00,,,0.12,,2013-09-16 08:11:00,
2013-09-16 01:21:00,60.0,59.0,29.81,South,169,5.0,11.0,95,0.00,,,0.12,,2013-09-16 08:21:00,
2013-09-16 01:52:00,60.0,59.0,29.83,SW,215,7.0,15.0,95,0.00,,,0.12,,2013-09-16 08:52:00,
2013-09-16 02:11:00,60.0,59.0,29.83,SW,224,5.0,11.0,95,0.00,,,0.12,,2013-09-16 09:11:00,
2013-09-16 02:22:00,60.0,59.0,29.83,SSE,150,6.0,9.0,95,0.00,,,0.12,,2013-09-16 09:22:00,
2013-09-16 02:43:00,60.0,59.0,29.83,SW,222,8.0,17.0,95,0.00,,,0.12,,2013-09-16 09:43:00,
2013-09-16 02:53:00,60.0,58.0,29.83,South,190,7.0,13.0,94,0.00,,,0.12,,2013-09-16 09:53:00,
2013-09-16 03:12:00,60.0,58.0,29.83,SW,231,6.0,13.0,94,0.00,,,0.12,,2013-09-16 10:12:00,
2013-09-16 03:23:00,60.0,58.0,29.84,SSE,156,6.0,12.0,93,0.00,,,0.12,,2013-09-16 10:23:00,
2013-09-16 03:42:00,60.0,58.0,29.84,SW,219,8.0,16.0,92,0.00,,,0.12,,2013-09-16 10:42:00,
2013-09-16 03:53:00,60.0,58.0,29.85,SSW,204,9.0,16.0,93,0.00,,,0.12,,2013-09-16 10:53:00,
2013-09-16 04:12:00,60.0,58.0,29.85,WSW,248,8.0,15.0,92,0.00,,,0.12,,2013-09-16 11:12:00,
2013-09-16 04:22:00,60.0,58.0,29.85,SSW,208,5.0,15.0,92,0.00,,,0.12,,2013-09-16 11:22:00,
2013-09-16 04:42:00,59.0,57.0,29.85,SE,139,5.0,12.0,93,0.00,,,0.12,,2013-09-16 11:42:00,
2013-09-16 04:52:00,59.0,57.0,29.85,SSE,155,4.0,13.0,94,0.00,,,0.12,,2013-09-16 11:52:00,
2013-09-16 05:12:00,59.0,57.0,29.86,South,188,5.0,14.0,94,0.00,,,0.12,,2013-09-16 12:12:00,
2013-09-16 05:22:00,59.0,57.0,29.86,SSW,208,7.0,13.0,94,0.00,,,0.12,,2013-09-16 12:22:00,
2013-09-16 05:52:00,59.0,57.0,29.86,SSE,152,6.0,13.0,94,0.00,,,0.12,,2013-09-16 12:52:00,
2013-09-16 06:11:00,59.0,58.0,29.87,SW,214,6.0,11.0,95,0.00,,,0.12,,2013-09-16 13:11:00,
2013-09-16 06:21:00,59.0,58.0,29.87,SSW,210,5.0,9.0,95,0.00,,,0.12,,2013-09-16 13:21:00,
2013-09-16 06:52:00,59.0,57.0,29.87,South,183,6.0,9.0,94,0.00,,,0.12,,2013-09-16 13:52:00,
2013-09-16 07:11:00,59.0,57.0,29.87,SW,214,6.0,10.0,93,0.00,,,0.12,,2013-09-16 14:11:00,
2013-09-16 07:21:00,59.0,57.0,29.87,South,183,6.0,12.0,93,0.00,,,0.12,,2013-09-16 14:21:00,
2013-09-16 07:52:00,59.0,57.0,29.88,SSW,206,5.0,12.0,93,0.00,,,0.12,,2013-09-16 14:52:00,
2013-09-16 08:11:00,60.0,58.0,29.88,SW,226,6.0,13.0,92,0.00,,,0.12,,2013-09-16 15:11:00,
2013-09-16 08:22:00,60.0,58.0,29.88,SSE,153,7.0,16.0,92,0.00,,,0.12,,2013-09-16 15:22:00,
2013-09-16 08:42:00,60.0,58.0,29.88,WSW,249,6.0,13.0,92,0.00,,,0.12,,2013-09-16 15:42:00,
2013-09-16 08:53:00,60.0,57.0,29.88,WSW,249,6.0,15.0,91,0.00,,,0.12,,2013-09-16 15:53:00,
2013-09-16 09:12:00,60.0,57.0,29.89,SSW,210,9.0,17.0,91,0.00,,,0.12,,2013-09-16 16:12:00,
2013-09-16 09:23:00,60.0,57.0,29.89,SSW,194,9.0,14.0,91,0.00,,,0.12,,2013-09-16 16:23:00,
2013-09-16 09:43:00,60.0,57.0,29.89,South,169,8.0,16.0,91,0.00,,,0.12,,2013-09-16 16:43:00,
2013-09-16 09:52:00,60.0,57.0,29.89,SW,218,8.0,15.0,91,0.00,,,0.12,,2013-09-16 16:52:00,
2013-09-16 10:12:00,60.0,58.0,29.89,SE,134,7.0,17.0,92,0.00,,,0.12,,2013-09-16 17:12:00,
2013-09-16 10:23:00,60.0,58.0,29.89,South,188,9.0,16.0,92,0.00,,,0.10,,2013-09-16 17:23:00,
2013-09-16 10:42:00,61.0,58.0,29.89,SE,136,8.0,16.0,91,0.00,,,0.10,,2013-09-16 17:42:00,
2013-09-16 10:53:00,61.0,58.0,29.90,SE,137,6.0,14.0,90,0.00,,,0.10,,2013-09-16 17:53:00,
2013-09-16 11:02:00,61.0,58.0,29.90,SE,137,6.0,14.0,90,0.00,,,0.10,,2013-09-16 18:02:00,
2013-09-16 11:12:00,61.0,58.0,29.90,SE,137,6.0,14.0,90,0.00,,,0.10,,2013-09-16 18:12:00,
2013-09-16 11:22:00,62.0,58.0,29.89,SSW,210,10.0,18.0,88,0.00,,,0.10,,2013-09-16 18:22:00,
2013-09-16 11:42:00,62.0,58.0,29.89,South,191,10.0,18.0,88,0.00,,,0.10,,2013-09-16 18:42:00,
2013-09-16 11:52:00,62.0,58.0,29.90,SSE,153,10.0,22.0,88,0.00,,,0.10,,2013-09-16 18:52:00,
2013-09-16 12:11:00,62.0,58.0,29.91,West,269,8.0,19.0,87,0.00,,,0.10,,2013-09-16 19:11:00,
2013-09-16 12:22:00,63.0,59.0,29.91,SW,229,7.0,15.0,87,0.00,,,0.10,,2013-09-16 19:22:00,
2013-09-16 12:42:00,63.0,59.0,29.91,SSE,163,7.0,14.0,86,0.00,,,0.10,,2013-09-16 19:42:00,
2013-09-16 12:53:00,63.0,58.0,29.91,WSW,238,8.0,14.0,85,0.00,,,0.10,,2013-09-16 19:53:00,
2013-09-16 13:11:00,64.0,59.0,29.92,SW,219,6.0,13.0,84,0.00,,,0.10,,2013-09-16 20:11:00,
2013-09-16 13:22:00,64.0,59.0,29.92,South,173,7.0,13.0,84,0.00,,,0.10,,2013-09-16 20:22:00,
2013-09-16 13:42:00,64.0,59.0,29.92,SSE,155,5.0,11.0,83,0.00,,,0.10,,2013-09-16 20:42:00,
2013-09-16 13:52:00,64.0,59.0,29.92,ESE,114,5.0,10.0,83,0.00,,,0.10,,2013-09-16 20:52:00,
2013-09-16 14:11:00,64.0,59.0,29.92,SW,233,6.0,10.0,83,0.00,,,0.10,,2013-09-16 21:11:00,
2013-09-16 14:21:00,65.0,59.0,29.91,SSE,150,4.0,10.0,81,0.00,,,0.10,,2013-09-16 21:21:00,
2013-09-16 14:55:00,67.0,60.0,29.91,SE,141,7.0,12.0,77,0.00,,,0.10,,2013-09-16 21:55:00,
2013-09-16 15:13:00,68.0,60.0,29.90,SW,228,5.0,12.0,75,0.00,,,0.10,,2013-09-16 22:13:00,
2013-09-16 15:24:00,68.0,60.0,29.90,SSE,150,4.0,11.0,75,0.00,,,0.10,,2013-09-16 22:24:00,
2013-09-16 15:42:00,68.0,59.0,29.90,South,184,6.0,11.0,73,0.00,,,0.10,,2013-09-16 22:42:00,
2013-09-16 15:53:00,68.0,60.0,29.90,SE,138,5.0,11.0,75,0.00,,,0.10,,2013-09-16 22:53:00,
2013-09-16 16:12:00,68.0,60.0,29.90,WSW,252,4.0,10.0,75,0.00,,,0.10,,2013-09-16 23:12:00,
2013-09-16 16:22:00,68.0,59.0,29.90,WNW,297,6.0,10.0,73,0.00,,,0.10,,2013-09-16 23:22:00,
2013-09-16 16:43:00,64.0,58.0,29.90,NNW,344,2.0,9.0,81,0.00,,,0.10,,2013-09-16 23:43:00,
2013-09-16 16:52:00,65.0,59.0,29.90,North,3,4.0,11.0,81,0.00,,,0.10,,2013-09-16 23:52:00,
2013-09-16 17:11:00,64.0,58.0,29.90,NNE,25,5.0,9.0,81,0.00,,,0.10,,2013-09-17 00:11:00,
2013-09-16 17:21:00,63.0,57.0,29.90,NNE,18,6.0,10.0,82,0.00,,,0.10,,2013-09-17 00:21:00,
2013-09-16 17:42:00,63.0,58.0,29.90,North,349,6.0,12.0,83,0.00,,,0.10,,2013-09-17 00:42:00,
2013-09-16 17:52:00,62.0,57.0,29.90,North,356,4.0,11.0,84,0.00,,,0.10,,2013-09-17 00:52:00,
2013-09-16 18:11:00,62.0,57.0,29.91,NNE,25,6.0,11.0,85,0.00,,,0.10,,2013-09-17 01:11:00,
2013-09-16 18:21:00,61.0,57.0,29.91,NNE,20,5.0,10.0,87,0.00,,,0.08,,2013-09-17 01:21:00,
2013-09-16 18:41:00,60.0,56.0,29.91,NNW,328,5.0,10.0,87,0.00,,,0.08,,2013-09-17 01:41:00,
2013-09-16 18:52:00,60.0,56.0,29.91,ENE,75,5.0,9.0,87,0.00,,,0.08,,2013-09-17 01:52:00,
2013-09-16 19:11:00,60.0,56.0,29.91,NNW,337,2.0,8.0,87,0.00,,,0.08,,2013-09-17 02:11:00,
2013-09-16 19:22:00,60.0,56.0,29.91,NE,40,4.0,6.0,86,0.00,,,0.00,,2013-09-17 02:22:00,
2013-09-16 19:42:00,60.0,55.0,29.91,NE,37,3.0,8.0,85,0.00,,,0.00,,2013-09-17 02:42:00,
2013-09-16 19:52:00,60.0,55.0,29.91,NE,39,3.0,8.0,85,0.00,,,0.00,,2013-09-17 02:52:00,
2013-09-16 20:11:00,60.0,56.0,29.91,NE,45,3.0,5.0,86,0.00,,,0.00,,2013-09-17 03:11:00,
2013-09-16 20:23:00,60.0,56.0,29.92,NE,52,2.0,6.0,86,0.00,,,0.00,,2013-09-17 03:23:00,
2013-09-16 20:44:00,60.0,55.0,29.92,NNE,26,3.0,5.0,84,0.00,,,0.00,,2013-09-17 03:44:00,
2013-09-16 20:54:00,60.0,54.0,29.92,ENE,61,4.0,9.0,82,0.00,,,0.00,,2013-09-17 03:54:00,
2013-09-16 21:14:00,60.0,55.0,29.92,ENE,71,3.0,6.0,83,0.00,,,0.00,,2013-09-17 04:14:00,
2013-09-16 21:24:00,59.0,54.0,29.92,NNE,32,4.0,6.0,84,0.00,,,0.00,,2013-09-17 04:24:00,
2013-09-16 21:54:00,59.0,54.0,29.92,NE,56,3.0,6.0,84,0.00,,,0.00,,2013-09-17 04:54:00,
2013-09-16 22:12:00,59.0,54.0,29.92,ENE,57,4.0,9.0,83,0.00,,,0.00,,2013-09-17 05:12:00,
2013-09-16 22:23:00,59.0,53.0,29.91,NNE,23,3.0,8.0,81,0.00,,,0.00,,2013-09-17 05:23:00,
2013-09-16 22:52:00,59.0,54.0,29.92,ENE,60,4.0,7.0,82,0.00,,,0.00,,2013-09-17 05:52:00,
2013-09-16 23:12:00,59.0,53.0,29.91,NE,44,5.0,8.0,81,0.00,,,0.00,,2013-09-17 06:12:00,
2013-09-16 23:22:00,59.0,54.0,29.92,ESE,104,1.0,6.0,82,0.00,,,0.00,,2013-09-17 06:22:00,
2013-09-16 23:42:00,59.0,54.0,29.92,ENE,64,1.0,4.0,84,0.00,,,0.00,,2013-09-17 06:42:00,
2013-09-16 23:52:00,59.0,54.0,29.92,NNE,25,3.0,5.0,84,0.00,,,0.00,,2013-09-17 06:52:00,